Find Starlink 4465

NORAD ID: 53496 Int'l Des: 2022-099 Owner: SPXS Country: US Constellation: starlink operational
LEOCIRCULARRETROGRADE

リアルタイム位置

3D地球を読み込み中...

Starlink 4465について

説明を読み込み中...

次回通過

Passes for default location (London). Set your location on the main map for personalized predictions.

高度履歴

Loading altitude history...

軌道要素

1 53496U 22099AH 26107.46264556 .01683077 25886-5 67636-3 0 9990
2 53496 97.6261 259.7014 0009944 277.6169 82.3992 16.23454778203715
Epoch: Apr 17, 2026 • Age: 6 hours

現在のステータス

高度 212.5 km
速度 7.78 km/s
衛星直下点 21.10°N, 154.61°E
打ち上げ日 Aug 12, 2022
運用期間 3.6 years
タイプ internet

技術仕様

分類 Payload
質量 300.00 kg
乾燥質量 275.00 kg
総質量 300.00 kg
長さ 0.20 m
直径 2.80 m
スパン 9.00 m
形状 Box + pan
製造者 SPXS
バスタイプ Starlink
フェーズステータス In Orbit
所有者/国 SPXS/US

Most Searched